Overview Statistics Trail Chart Weather Telemetry Raw packets
 

This is the latest recevied weather packets stored in our database for station/object K1NOT-WX. If no packets are shown the sender has not sent any weather packets the latest 10 day(s).

<< 22 23 24 25 26 27 28 >>
Time Temp. Humidity Pressure Rain* Wind** Luminosity Snow
1777235232 17.78° C 30% 1001 hPa 0 mm - - -
1777234332 18.33° C 30% 1001 hPa 0 mm - - -
1777233432 18.33° C 31% 1001 hPa 0 mm - - -
1777232532 18.33° C 31% 1001 hPa 0 mm - - -
1777231632 18.89° C 31% 1001 hPa 0 mm - - -
1777230732 17.78° C 31% 1001.4 hPa 0 mm - - -
1777229832 17.78° C 33% 1001.4 hPa 0 mm - - -
1777228932 17.22° C 37% 1001.4 hPa 0 mm - - -
1777228033 15.56° C 46% 1001.4 hPa 0 mm - - -
1777227133 16.67° C 41% 1001.4 hPa 0 mm - - -
1777226233 18.89° C 38% 1001 hPa 0 mm - - -
1777225333 17.78° C 38% 1001.4 hPa 0 mm - - -
1777224433 16.11° C 42% 1001.4 hPa 0 mm - - -
1777223533 17.78° C 40% 1001 hPa 0 mm - - -
1777222633 17.22° C 39% 1001 hPa 0 mm - - -
1777221733 15.56° C 43% 1001 hPa 0 mm - - -
1777220833 15° C 48% 1001 hPa 0 mm - - -
1777219933 14.44° C 49% 1001 hPa 0 mm - - -
1777219033 14.44° C 49% 1001.4 hPa 0 mm - - -
1777218133 12.22° C 53% 1001.4 hPa 0 mm - - -
1777217233 12.22° C 55% 1001.4 hPa 0 mm - - -
1777216333 11.11° C 59% 1001.4 hPa 0 mm - - -
1777215433 10° C 65% 1001 hPa 0 mm - - -
1777214533 8.89° C 70% 1001 hPa 0 mm - - -
1777213632 10.56° C 61% 1000.7 hPa 0 mm - - -

* Rain latest hour (hover to see other rain measurements)
** Current wind speed in m/s (hover to see current wind gust speed)